Location: *
(48.8667°N, 2.3331°E)
Time: 09:09:14
(UTC+00:00)

FALCON 9 DEB - Pass Details

Date: 09 April 2020
Orbit: 429 x 441 km, 53.0° (Epoch: 23 May)

Event Time Altitude Azimuth Distance (km) Brightness Sun altitude
Rises 21:02:44 0° 261° (W) 2,428 7.4 -22.1°
Reaches altitude 10° 21:04:54 10° 266° (W) 1,559 6.5 -22.4°
Maximum altitude 21:08:20 53° 345° (NNW) 548 3.8 -22.8°
Enters shadow 21:08:22 53° 347° (NNW) 548 3.8 -22.8°
